| time (UTC) | temp F | wind direction | speed knots | gust knots | rain 1hr in | rain 24hr in | rain mn in | humidity % | barometer mb |
| 20260506184405 | 55 | 335 | 4.3 | 9.6 | 0.00 | 0.00 | 0.00 | 78 | 1010.4 |
| 20260506183405 | 55 | 339 | 5.2 | 9.6 | 0.00 | 0.00 | 0.00 | 78 | 1010.3 |
| 20260506182404 | 55 | 306 | 6.1 | 12.2 | 0.00 | 0.00 | 0.00 | 77 | 1010.2 |
| 20260506181410 | 55 | 329 | 5.2 | 11.3 | 0.00 | 0.00 | 0.00 | 77 | 1010.1 |
| 20260506180404 | 56 | 302 | 5.2 | 10.4 | 0.00 | 0.00 | 0.00 | 78 | 1009.9 |
| 20260506175404 | 56 | 16 | 6.1 | 12.2 | 0.00 | 0.00 | 0.00 | 79 | 1009.8 |
| 20260506174414 | 56 | 342 | 7.0 | 13.9 | 0.00 | 0.00 | 0.00 | 79 | 1009.8 |
| 20260506173405 | 56 | 304 | 7.8 | 13.9 | 0.00 | 0.00 | 0.00 | 79 | 1009.7 |
| 20260506172410 | 56 | 320 | 7.0 | 12.2 | 0.00 | 0.00 | 0.00 | 78 | 1009.6 |
| 20260506171404 | 56 | 304 | 7.0 | 13.0 | 0.00 | 0.00 | 0.00 | 77 | 1009.5 |
| 20260506170415 | 56 | 335 | 7.8 | 15.6 | 0.00 | 0.00 | 0.00 | 77 | 1009.5 |
| 20260506165404 | 56 | 355 | 7.8 | 13.0 | 0.00 | 0.00 | 0.00 | 77 | 1009.5 |
| 20260506164405 | 56 | 327 | 8.7 | 14.8 | 0.00 | 0.00 | 0.00 | 77 | 1009.4 |
| 20260506163405 | 56 | 327 | 7.8 | 13.0 | 0.00 | 0.00 | 0.00 | 77 | 1009.4 |
| 20260506162404 | 56 | 0 | 7.0 | 13.9 | 0.00 | 0.00 | 0.00 | 78 | 1009.3 |
| 20260506161404 | 56 | 350 | 7.0 | 13.9 | 0.00 | 0.00 | 0.00 | 77 | 1009.3 |
| 20260506160404 | 56 | 355 | 7.8 | 15.6 | 0.00 | 0.00 | 0.00 | 79 | 1009.4 |
| 20260506155404 | 57 | 16 | 7.0 | 13.0 | 0.00 | 0.00 | 0.00 | 78 | 1009.4 |
| 20260506154404 | 57 | 315 | 7.8 | 13.9 | 0.00 | 0.00 | 0.00 | 78 | 1009.3 |
| 20260506153842 | 57 | 15 | 7.0 | 13.9 | 0.00 | 0.00 | 0.00 | 78 | 1009.4 |
| 20260506152404 | 56 | 309 | 7.8 | 13.9 | 0.00 | 0.00 | 0.00 | 79 | 1009.4 |
| 20260506151404 | 57 | 5 | 7.0 | 13.0 | 0.00 | 0.00 | 0.00 | 79 | 1009.4 |
| 20260506150414 | 56 | 324 | 7.0 | 13.0 | 0.00 | 0.00 | 0.00 | 79 | 1009.4 |
| 20260506145404 | 56 | 355 | 6.1 | 13.0 | 0.00 | 0.00 | 0.00 | 79 | 1009.5 |
| 20260506144840 | 56 | 298 | 7.0 | 12.2 | 0.00 | 0.00 | 0.00 | 80 | 1009.4 |
| 20260506143404 | 56 | 341 | 7.8 | 14.8 | 0.00 | 0.00 | 0.00 | 79 | 1009.4 |
| 20260506142404 | 56 | 327 | 7.8 | 13.9 | 0.00 | 0.00 | 0.00 | 79 | 1009.4 |
| 20260506141404 | 56 | 349 | 7.8 | 13.9 | 0.00 | 0.00 | 0.00 | 78 | 1009.4 |
| 20260506141316 | 57 | 323 | 7.0 | 14.8 | 0.00 | 0.00 | 0.00 | 78 | 1009.4 |
| 20260506135404 | 57 | 323 | 7.8 | 14.8 | 0.00 | 0.00 | 0.00 | 78 | 1009.5 |
| 20260506134404 | 57 | 355 | 7.0 | 13.0 | 0.00 | 0.00 | 0.00 | 78 | 1009.5 |
| 20260506134334 | 57 | 310 | 7.8 | 13.9 | 0.00 | 0.00 | 0.00 | 78 | 1009.5 |
| 20260506132404 | 57 | 340 | 7.8 | 13.9 | 0.00 | 0.00 | 0.00 | 77 | 1009.5 |
| 20260506131404 | 56 | 317 | 7.8 | 15.6 | 0.00 | 0.00 | 0.00 | 77 | 1009.4 |
| 20260506130404 | 57 | 351 | 8.7 | 13.0 | 0.00 | 0.00 | 0.00 | 76 | 1009.3 |
| 20260506125409 | 57 | 309 | 7.8 | 13.9 | 0.00 | 0.00 | 0.00 | 76 | 1009.1 |
| 20260506124403 | 57 | 311 | 8.7 | 15.6 | 0.00 | 0.00 | 0.00 | 76 | 1009.1 |
| 20260506123404 | 57 | 348 | 8.7 | 15.6 | 0.00 | 0.00 | 0.00 | 76 | 1009.1 |
| 20260506122404 | 57 | 319 | 8.7 | 15.6 | 0.00 | 0.00 | 0.00 | 75 | 1009.0 |
| 20260506121403 | 57 | 5 | 7.8 | 15.6 | 0.00 | 0.00 | 0.00 | 75 | 1009.0 |
| 20260506120404 | 57 | 329 | 7.0 | 15.6 | 0.00 | 0.00 | 0.00 | 75 | 1009.0 |
| 20260506115403 | 57 | 317 | 8.7 | 14.8 | 0.00 | 0.00 | 0.00 | 75 | 1008.9 |
| 20260506114404 | 57 | 329 | 7.0 | 13.9 | 0.00 | 0.00 | 0.00 | 75 | 1009.0 |
| 20260506113408 | 57 | 342 | 7.0 | 13.0 | 0.00 | 0.00 | 0.00 | 76 | 1009.0 |
| 20260506112409 | 56 | 9 | 7.8 | 13.0 | 0.00 | 0.00 | 0.00 | 77 | 1009.0 |
| 20260506111403 | 56 | 346 | 7.8 | 13.0 | 0.00 | 0.00 | 0.00 | 76 | 1008.8 |
| 20260506110857 | 56 | 309 | 7.0 | 12.2 | 0.00 | 0.00 | 0.00 | 76 | 1009.0 |
| 20260506105842 | 56 | 5 | 7.0 | 12.2 | 0.00 | 0.00 | 0.00 | 77 | 1009.0 |
| 20260506104403 | 56 | 326 | 7.8 | 13.9 | 0.00 | 0.00 | 0.00 | 77 | 1009.0 |
| 20260506103837 | 56 | 336 | 7.8 | 13.0 | 0.00 | 0.00 | 0.00 | 77 | 1009.1 |
| 20260506102406 | 56 | 348 | 7.8 | 13.0 | 0.00 | 0.00 | 0.00 | 77 | 1008.9 |
| 20260506101403 | 56 | 5 | 7.8 | 14.8 | 0.00 | 0.00 | 0.00 | 77 | 1008.8 |
| 20260506101320 | 56 | 355 | 7.8 | 15.6 | 0.00 | 0.00 | 0.00 | 77 | 1008.7 |
| 20260506095403 | 56 | 329 | 8.7 | 15.6 | 0.00 | 0.00 | 0.00 | 78 | 1008.7 |
| 20260506094844 | 56 | 348 | 8.7 | 14.8 | 0.00 | 0.00 | 0.00 | 77 | 1008.8 |
| 20260506093843 | 56 | 348 | 7.0 | 13.9 | 0.00 | 0.00 | 0.00 | 78 | 1008.8 |
| 20260506092408 | 55 | 355 | 7.8 | 15.6 | 0.00 | 0.00 | 0.00 | 77 | 1008.8 |
| 20260506091403 | 55 | 321 | 7.8 | 15.6 | 0.00 | 0.00 | 0.00 | 78 | 1008.7 |
| 20260506090409 | 55 | 320 | 7.8 | 13.9 | 0.00 | 0.00 | 0.00 | 79 | 1008.6 |
| 20260506085403 | 54 | 335 | 7.8 | 15.6 | 0.00 | 0.00 | 0.00 | 79 | 1008.6 |
| 20260506084403 | 53 | 341 | 8.7 | 13.9 | 0.00 | 0.00 | 0.00 | 79 | 1008.6 |
| 20260506083842 | 53 | 348 | 7.0 | 13.9 | 0.00 | 0.00 | 0.00 | 80 | 1008.5 |
| 20260506082403 | 53 | 313 | 7.0 | 15.6 | 0.00 | 0.00 | 0.00 | 80 | 1008.4 |
| 20260506081847 | 53 | 333 | 7.8 | 14.8 | 0.00 | 0.00 | 0.00 | 80 | 1008.4 |
| 20260506080403 | 53 | 350 | 7.0 | 14.8 | 0.00 | 0.00 | 0.00 | 79 | 1008.4 |
| 20260506072403 | 53 | 334 | 7.0 | 13.9 | 0.00 | 0.00 | 0.00 | 79 | 1008.2 |
| 20260506071844 | 52 | 9 | 8.7 | 13.9 | 0.00 | 0.00 | 0.00 | 79 | 1008.2 |
| 20260506070844 | 52 | 355 | 7.0 | 14.8 | 0.00 | 0.00 | 0.00 | 79 | 1008.3 |
| 20260506062402 | 52 | 346 | 7.8 | 14.8 | 0.00 | 0.00 | 0.00 | 80 | 1008.0 |
| 20260506061403 | 52 | 44 | 7.8 | 13.0 | 0.00 | 0.00 | 0.00 | 79 | 1008.0 |
| 20260506060849 | 52 | 329 | 8.7 | 15.6 | 0.00 | 0.00 | 0.00 | 79 | 1008.0 |
| 20260506051402 | 52 | 350 | 7.0 | 14.8 | 0.00 | 0.00 | 0.00 | 80 | 1007.8 |
| 20260506050846 | 52 | 338 | 7.8 | 14.8 | 0.00 | 0.00 | 0.00 | 81 | 1007.8 |
| 20260506044403 | 52 | 50 | 7.8 | 13.0 | 0.00 | 0.00 | 0.00 | 81 | 1007.8 |
| 20260506043407 | 52 | 355 | 7.0 | 12.2 | 0.00 | 0.00 | 0.00 | 81 | 1008.0 |
| 20260506042408 | 52 | 339 | 7.8 | 18.2 | 0.00 | 0.00 | 0.00 | 80 | 1007.9 |
| 20260506041403 | 52 | 336 | 8.7 | 14.8 | 0.00 | 0.00 | 0.00 | 80 | 1007.9 |
| 20260506040412 | 52 | 331 | 7.0 | 14.8 | 0.00 | 0.00 | 0.00 | 81 | 1008.0 |
| 20260506035403 | 52 | 306 | 7.0 | 12.2 | 0.00 | 0.00 | 0.00 | 80 | 1008.0 |
| 20260506034402 | 52 | 273 | 7.0 | 13.0 | 0.00 | 0.00 | 0.00 | 80 | 1008.1 |
| 20260506033840 | 52 | 340 | 7.8 | 14.8 | 0.00 | 0.00 | 0.00 | 80 | 1008.1 |
| 20260506032403 | 52 | 340 | 7.0 | 13.0 | 0.00 | 0.00 | 0.00 | 80 | 1008.2 |
| 20260506031846 | 52 | 350 | 6.1 | 11.3 | 0.00 | 0.00 | 0.00 | 80 | 1008.2 |
| 20260506030840 | 52 | 345 | 6.1 | 13.0 | 0.00 | 0.00 | 0.00 | 79 | 1008.2 |
| 20260506025402 | 52 | 338 | 7.8 | 13.0 | 0.00 | 0.00 | 0.00 | 79 | 1008.3 |
| 20260506024403 | 52 | 319 | 7.0 | 13.0 | 0.00 | 0.00 | 0.00 | 79 | 1008.3 |
| 20260506023402 | 52 | 346 | 7.0 | 11.3 | 0.00 | 0.00 | 0.00 | 79 | 1008.4 |
| 20260506022403 | 52 | 340 | 6.1 | 13.0 | 0.00 | 0.00 | 0.00 | 76 | 1008.4 |
| 20260506021402 | 52 | 326 | 7.0 | 13.9 | 0.00 | 0.00 | 0.00 | 76 | 1008.4 |
| 20260506020402 | 52 | 338 | 7.0 | 13.0 | 0.00 | 0.00 | 0.00 | 76 | 1008.5 |
| 20260506015405 | 52 | 348 | 6.1 | 10.4 | 0.00 | 0.00 | 0.00 | 76 | 1008.5 |
| 20260506014402 | 52 | 355 | 6.1 | 12.2 | 0.00 | 0.00 | 0.00 | 76 | 1008.5 |
| 20260506013403 | 52 | 355 | 5.2 | 11.3 | 0.00 | 0.00 | 0.00 | 75 | 1008.6 |
| 20260506012836 | 52 | 314 | 6.1 | 12.2 | 0.00 | 0.00 | 0.00 | 76 | 1008.5 |
| 20260506011850 | 52 | 5 | 6.1 | 11.3 | 0.00 | 0.00 | 0.00 | 76 | 1008.6 |
| 20260506010402 | 52 | 348 | 5.2 | 10.4 | 0.00 | 0.00 | 0.00 | 77 | 1008.7 |
| 20260506005402 | 51 | 34 | 5.2 | 12.2 | 0.00 | 0.00 | 0.00 | 76 | 1008.6 |
| 20260506004402 | 51 | 324 | 6.1 | 13.9 | 0.00 | 0.00 | 0.00 | 76 | 1008.7 |
| 20260506003402 | 52 | 55 | 5.2 | 12.2 | 0.00 | 0.00 | 0.00 | 76 | 1008.7 |
| 20260506002402 | 52 | 331 | 6.1 | 12.2 | 0.00 | 0.00 | 0.00 | 76 | 1008.8 |
| 20260506001402 | 52 | 322 | 5.2 | 12.2 | 0.00 | 0.00 | 0.00 | 76 | 1009.0 |
| 20260506000402 | 52 | 333 | 5.2 | 12.2 | 0.00 | 0.00 | 0.00 | 76 | 1009.0 |
| 20260505235412 | 52 | 316 | 5.2 | 11.3 | 0.00 | 0.00 | 0.00 | 75 | 1009.0 |
| 20260505234402 | 52 | 315 | 6.1 | 11.3 | 0.00 | 0.00 | 0.00 | 76 | 1009.0 |
| 20260505233402 | 52 | 5 | 6.1 | 13.0 | 0.00 | 0.00 | 0.00 | 76 | 1009.0 |
| 20260505232402 | 52 | 319 | 6.1 | 14.8 | 0.00 | 0.00 | 0.00 | 76 | 1009.0 |
| 20260505232316 | 52 | 53 | 5.2 | 14.8 | 0.00 | 0.00 | 0.00 | 76 | 1009.1 |
| 20260505231313 | 52 | 319 | 5.2 | 11.3 | 0.00 | 0.00 | 0.00 | 77 | 1009.2 |
| 20260505225406 | 52 | 333 | 5.2 | 13.0 | 0.00 | 0.00 | 0.00 | 77 | 1009.3 |
| 20260505224400 | 52 | 79 | 4.3 | 13.9 | 0.00 | 0.00 | 0.00 | 77 | 1009.4 |
| 20260505223400 | 52 | 0 | 5.2 | 12.2 | 0.00 | 0.00 | 0.00 | 77 | 1009.3 |
| 20260505222400 | 52 | 318 | 6.1 | 12.2 | 0.00 | 0.00 | 0.00 | 77 | 1009.4 |
| 20260505221400 | 53 | 75 | 7.0 | 13.0 | 0.00 | 0.00 | 0.00 | 76 | 1009.3 |
| 20260505220359 | 53 | 347 | 6.1 | 12.2 | 0.00 | 0.00 | 0.00 | 77 | 1009.4 |
| 20260505215847 | 53 | 0 | 7.0 | 17.4 | 0.00 | 0.00 | 0.00 | 76 | 1009.3 |
| 20260505214359 | 53 | 312 | 5.2 | 13.0 | 0.00 | 0.00 | 0.00 | 78 | 1009.4 |
| 20260505213846 | 53 | 327 | 5.2 | 11.3 | 0.00 | 0.00 | 0.00 | 78 | 1009.4 |
| 20260505212404 | 53 | 355 | 5.2 | 11.3 | 0.00 | 0.00 | 0.00 | 78 | 1009.5 |
| 20260505211838 | 53 | 40 | 7.0 | 13.9 | 0.00 | 0.00 | 0.00 | 77 | 1009.5 |
| 20260505210359 | 53 | 61 | 6.1 | 14.8 | 0.00 | 0.00 | 0.00 | 78 | 1009.5 |
| 20260505205410 | 53 | 344 | 6.1 | 13.0 | 0.00 | 0.00 | 0.00 | 79 | 1009.6 |
| 20260505204844 | 53 | 337 | 5.2 | 11.3 | 0.00 | 0.00 | 0.00 | 79 | 1009.6 |
| 20260505203359 | 53 | 35 | 6.1 | 12.2 | 0.00 | 0.00 | 0.00 | 79 | 1009.5 |
| 20260505202359 | 53 | 345 | 5.2 | 10.4 | 0.00 | 0.00 | 0.00 | 80 | 1009.5 |
| 20260505201359 | 53 | 309 | 6.1 | 13.9 | 0.00 | 0.00 | 0.00 | 81 | 1009.4 |
| 20260505200358 | 53 | 306 | 6.1 | 11.3 | 0.00 | 0.00 | 0.00 | 82 | 1009.5 |
| 20260505195359 | 53 | 317 | 6.1 | 12.2 | 0.00 | 0.00 | 0.00 | 81 | 1009.4 |
| 20260505194359 | 53 | 42 | 6.1 | 11.3 | 0.00 | 0.00 | 0.00 | 81 | 1009.3 |
| 20260505193852 | 53 | 355 | 6.1 | 13.9 | 0.00 | 0.00 | 0.00 | 81 | 1009.3 |
| 20260505192843 | 53 | 315 | 6.1 | 16.5 | 0.00 | 0.00 | 0.00 | 80 | 1009.1 |
| 20260505191359 | 53 | 306 | 6.1 | 13.9 | 0.00 | 0.00 | 0.00 | 80 | 1009.2 |
| 20260505190403 | 53 | 346 | 6.1 | 16.5 | 0.00 | 0.00 | 0.00 | 80 | 1009.1 |
| 20260505185843 | 53 | 325 | 7.8 | 14.8 | 0.00 | 0.00 | 0.00 | 80 | 1009.0 |